Location: Street
(51.1247°N, 2.7429°W)
Time: 06:29:13
(UTC+00:00)

SR - Pass Details

Date: 01 December 2020
Orbit: 575 x 880 km, 66.7° (Epoch: 25 January)

Event Time Altitude Azimuth Distance (km) Brightness Sun altitude
Rises 01:35:49 0° 323° (NW) 3,125 - -55.3°
Reaches altitude 10° 01:38:09 10° 328° (NNW) 2,251 - -55.1°
Maximum altitude 01:43:12 51° 45° (NE) 981 - -54.5°
Drops below altitude 10° 01:48:40 10° 121° (ESE) 2,429 - -53.9°
Sets 01:51:16 0° 127° (SE) 3,396 - -53.6°
